Date,TemperatureHighF,TemperatureAvgF,TemperatureLowF,DewpointHighF,DewpointAvgF,DewpointLowF,HumidityHigh,HumidityAvg,HumidityLow,PressureMaxIn,PressureMinIn,WindSpeedMaxMPH,WindSpeedAvgMPH,GustSpeedMaxMPH,PrecipitationSumIn
2013-6-1,81.0,70.7,63.0,69.0,59.5,52.0,96,71,42,30.02,29.66,8,2,0,0.00
2013-6-2,72.0,64.8,58.0,56.0,53.2,49.0,80,66,51,30.10,30.01,6,1,0,0.00
2013-6-3,81.0,68.1,54.0,64.0,57.6,52.0,93,71,49,30.04,29.85,2,0,0,0.00
2013-6-4,80.0,72.4,64.0,68.0,64.1,61.0,96,76,60,30.00,29.80,4,1,0,0.00
2013-6-5,82.0,72.3,64.0,70.0,60.1,-99.9,98,76,54,29.99,29.86,10,-48,0,0.00
2013-6-6,78.0,70.1,64.0,64.0,57.6,52.0,90,67,41,29.98,29.91,3,0,0,0.00
2013-6-7,80.0,69.9,59.0,57.0,54.1,50.0,87,60,37,30.01,29.90,3,0,0,0.00
2013-6-8,83.0,72.2,61.0,62.0,57.5,54.0,81,62,40,29.93,29.79,2,0,0,0.00
2013-6-9,88.0,76.0,67.0,63.0,59.2,51.0,81,59,29,29.91,29.79,8,1,0,0.00
2013-6-10,95.0,82.2,70.0,69.0,64.5,57.0,81,57,36,29.93,29.85,1,0,0,0.00
2013-6-11,95.0,84.2,73.0,71.0,66.6,62.0,75,57,36,29.97,29.87,2,1,0,0.00
2013-6-12,94.0,85.7,76.0,72.0,68.4,65.0,79,58,41,29.97,29.88,3,1,0,0.00
2013-6-13,95.0,83.6,75.0,72.0,68.4,65.0,81,62,43,30.03,29.92,1,0,0,0.00
2013-6-14,95.0,84.4,73.0,74.0,70.1,66.0,81,64,45,30.00,29.89,1,0,0,0.00
2013-6-15,82.0,80.0,79.0,74.0,72.9,72.0,83,80,74,29.96,29.95,0,0,0,0.00
2013-6-18,87.0,83.2,74.0,66.0,63.3,60.0,75,52,41,30.02,29.93,1,-16,0,0.00
2013-6-19,86.0,77.0,65.0,69.0,64.6,-99.9,93,69,50,30.05,29.93,2,0,0,0.00
2013-6-20,92.0,79.3,72.0,75.0,68.7,65.0,82,71,54,30.02,29.92,3,1,0,0.00
2013-6-22,91.0,87.5,80.0,70.0,66.8,64.0,66,51,43,30.02,29.88,3,2,0,0.00
2013-6-23,93.0,83.3,75.0,71.0,68.3,65.0,81,62,43,29.94,29.86,3,-40,0,0.00
2013-6-24,91.0,82.3,74.0,71.0,67.9,64.0,82,64,43,30.01,29.89,2,1,0,0.00
2013-6-25,89.0,82.1,76.0,71.0,69.3,68.0,81,66,53,29.93,29.79,4,1,0,0.00
2013-6-26,96.0,85.5,76.0,75.0,70.8,66.0,74,63,49,29.90,29.80,1,0,0,0.00
2013-6-27,98.0,87.3,77.0,77.0,72.5,61.0,83,64,43,29.96,29.83,6,0,13,0.00
2013-6-28,95.0,85.4,77.0,69.0,63.1,55.0,69,49,29,29.97,29.83,6,2,13,0.00
2013-6-29,90.0,81.2,70.0,61.0,54.7,49.0,69,42,27,29.93,29.81,10,2,21,0.00
2013-6-30,83.0,75.7,68.0,56.0,53.5,51.0,66,47,35,29.98,29.87,6,2,0,0.00